Tracking 19242 objects as of 19-Sep-2018
HD Live streaming from Space Station
objects crossing your sky now

FENGYUN 1C DEB

Track FENGYUN 1C DEB now!
10-day predictions


NORAD ID: 41014
Int'l Code: 1999-025EXU
Perigee: 660.3 km
Apogee: 757.5 km
Inclination: 98.9 °
Period: 98.8 minutes
Semi major axis: 7079 km
RCS: Unknown
Launch date: May 10, 1999
Source: People's Republic of China (PRC)
Launch site: Taiyaun Space Center, China (TSC)

Note: This is SATELLITE DEBRIS
aabbcc
Your satellite tracking list
Your tracking list is empty




NASA's NSSDC Master Catalog

Two Line Element Set (TLE):
1 41014U 99025EXU 18262.38319590  .00001307  00000-0  29158-3 0  9991
2 41014  98.8960 125.2030 0068652 252.5743 106.7939 14.57338355239597
Source of the keplerian elements: AFSPC